Showing default

INTELSAT 30, 40271

Orbit data source: Space-Track

INTELSAT 30, 40271 is an American payload satellite in GEO that was launched on Thu, 16 Oct 2014 UTC via an ARIANE 5ECA launch vehicle from the French Guiana (FRGUI). Payload-class satellites include a variety of spacecraft equipped with specific instruments for various scientific and technological missions. These include communications satellites like Starlink; space stations such as the ISS; scientific satellites like the Hubble; Earth observation satellites from companies like Planet Labs, Umbra, and HawkEye 360; GPS; miniature CubeSats for education and research; and military/defense satellites.

Loading next visibility...
Identifier
40271, 2014-062A
Orbit
GEO
Country
Flag of USUS / ITSO
Related business
Manufacturer
SS/Loral (MDA)
Mission
Operational Commercial Communications
Bus & Motor
LS-1300-O, R-4D
Mass
6,320 kg wet, 3,000 kg dry
Launch date (UTC)
2014-10-16 (12 years ago)
Launch vehicle
ARIANE 5ECA
Launch site
French Guiana (FRGUI)
Object type
Payload
Rocket body
Debris
Shape & HBR
Box + 2 Pan, 16.2 m
Radar Cross Section
55.801 m², Large (>1 m²)

Expand to show TLE details & history
Last TLE update: 2 days ago

TLE from 2 days ago
0 INTELSAT 30
1 40271U 14062A   26171.15927381 -.00000154  00000-0  00000-0 0  9991
2 40271   0.0266  53.4926 0001017   9.4262 167.7293  1.00256820  6826
Epoch: 2026-06-20T03:49Z
TLE epoch observation values (Epoch: 2026-06-20T03:49:21.257Z)
Latitude
-0.00969°
Longitude
-95.05334°
Altitude
35,794.48 km
Speed
3.074 km/s
True Right ascension
15h 22m 39s
True Declination
0° 00' 35"
Sunlit
Object was in daylight at epoch
Visualization orbit readout
Latitude
Unknown
Longitude
Unknown
Altitude
Unknown
Speed
Unknown
Apparent Right ascension
Unknown
Apparent Declination
Unknown
Sunlit
N/A
Visualization observer readout
Local Sidereal Time
00:50:17
Azimuth
Unknown
Elevation
Unknown
Doppler factor
Unknown
Orbital elements
Apogee altitude
35,796.15 km
Perigee altitude
35,787.572 km
Semi-major axis
42,169.998 km
Eccentricity
0.0001
Inclination
0.0266°
RAAN
53.4926°
Arg. of periapsis
9.4262°
True anomaly
167.73178°
Mean anomaly
167.7293°
Eccentric anomaly
167.73054°
Mean motion
0.25063 °/min
Orbital period
1,436.36 mins
BSTAR
0
Loading maneuver chart data...
Computing Atmospheric mass density...
Loading historical data...
Loading historical data...
Loading historical data...
Loading historical data...
Loading historical data...
Loading historical data...
Loading historical data...
Other satellites on launch #62 in the year 2014 (2014-10-16 UTC)

Documentation

Showing up to 5 results
|